Location: *
(24.1434°N, 56.8729°E)
Time: 06:39:20
(UTC+00:00)

ARGOS - Pass Details

Date: 09 April 2020
Orbit: 820 x 834 km, 98.5° (Epoch: 25 May)

Event Time Altitude Azimuth Distance (km) Brightness Sun altitude
Exits shadow 15:58:01 28° 150° (SSE) 1,508 4.1 -19.9°
Maximum altitude 16:00:51 66° 76° (ENE) 901 3.1 -20.5°
Drops below altitude 10° 16:06:11 10° 355° (N) 2,427 5.9 -21.6°
Sets 16:08:33 0° 352° (N) 3,360 6.7 -22.1°
